Location: Unspecified
(0.0000°N, 0.0000°E)
Time: 18:23:38
(UTC+00:00)

Vanguard 3 - Pass Details

Date: 25 September 2023
Orbit: 507 x 3241 km, 33.3° (Epoch: 29 November)

Event Time Altitude Azimuth Distance (km) Brightness Sun altitude
Rises 14:44:34 0° 230° (SW) 7,142 12.5 46.8°
Reaches altitude 10° 14:49:22 10° 228° (SW) 6,175 12.3 45.6°
Maximum altitude 15:09:15 75° 145° (SE) 2,881 10.5 40.6°
Drops below altitude 10° 15:22:53 10° 61° (ENE) 4,465 10.6 37.2°
Sets 15:25:44 0° 60° (ENE) 5,159 10.8 36.5°
